Find Hai Yang 3-01

NORAD ID: 58349 Int'l Des: 2023-176 Owner: GYZ/CASC Country: CN operational
LEOCIRCULARRETROGRADESSO

Current View

Loading 3D Globe...

About Hai Yang 3-01

Hai Yang 3-01 (NORAD 58349) is a satellite launched Nov 16, 2023 by GYZ/CASC of CN. It operates in LEO, CIRCULAR, RETROGRADE, SSO orbit with a mass of 1500.00 kg.

Upcoming Passes

Passes for default location (London). Set your location on the main map for personalized predictions.

Altitude History

Loading altitude history...

Two-Line Element Set

1 58349U 23176A 26195.58642516 .00000038 00000-0 29330-4 0 9990
2 58349 98.5458 273.2437 0008463 307.3092 52.7321 14.34129982139245
Epoch: Jul 14, 2026 • Age: 4 hours

Current Status

Altitude 784.5 km
Apogee / Perigee N/A
Velocity 7.46 km/s
Sub-Earth Point 7.53°N, 111.45°W
Launch Date Nov 16, 2023
Age 2.6 years
Type other

Technical Details

Classification Payload
Mass 1500.00 kg
Dry Mass 1500.00 kg
Total Mass 1500.00 kg
Length 1.00 m
Diameter 1.00 m
Span 4.00 m
Shape Box + 2 Pan
Manufacturer DFHS
Bus Type CAST-968
Phase Status In Orbit
Owner/State GYZ/CASC/CN

Most Searched